Location: Althorst
(53.6379°N, 10.7715°E)
Time: 05:22:55
(UTC+00:00)

Cosmos 1980 Rocket - Pass Details

Date: 10 December 2019
Orbit: 829 x 850 km, 71.0° (Epoch: 22 January)

Event Time Altitude Azimuth Distance (km) Brightness Sun altitude
Rises 15:33:05 0° 257° (WSW) 3,412 7.0 -5.2°
Reaches altitude 10° 15:35:57 10° 271° (W) 2,481 5.7 -5.5°
Maximum altitude 15:40:39 26° 326° (NW) 1,640 3.8 -6.1°
Drops below altitude 10° 15:45:21 10° 22° (NNE) 2,489 4.2 -6.7°
Enters shadow 15:47:03 - 30° (NNE) 3,025 4.5 -7.0°
